Weather History for KUZA - September, 2013

Change the Weather History Date:

Friday, September 13, 2013

  Actual Average Record
Temperature  
Mean Temperature 76 °F -  
Max Temperature 87 °F 83 °F 94 °F (1962)
Min Temperature 66 °F 62 °F 48 °F (1967)
Cooling Degree Days 11    
Growing Degree Days 26 (Base 50)    
Moisture  
Dew Point 62 °F    
Average Humidity 64    
Maximum Humidity 100    
Minimum Humidity 37    
Precipitation  
Precipitation 0.00 in - - ()
Sea Level Pressure  
Sea Level Pressure 29.82 in    
Wind  
Wind Speed 5 mph (North)    
Max Wind Speed 10 mph    
Max Gust Speed 16 mph    
Visibility 9 miles    
Events      
Averages and records for this station are not official NWS values.
T = Trace of Precipitation, MM = Missing Value Source: NWS Daily Summary

Daily Weather History Graph

Daily Weather History Graph

Search for Another Location

Airport or City:

Trip Planner

Search our weather history database for the weather conditions in past years. The results will help you decide how hot, cold, wet, or windy it might be!

Date:

Astronomy

Sep. 13, 2013 Rise Set
Actual Time 7:05 AM EDT 7:33 PM EDT
Civil Twilight 6:40 AM EDT 7:59 PM EDT
Nautical Twilight 6:10 AM EDT 8:28 PM EDT
Astronomical Twilight 5:40 AM EDT 8:59 PM EDT
Moon 3:12 PM EDT (9/13) 12:43 AM EDT (9/13)
Length of Visible Light 13h 18m
Length of Day
12h 27m
First Quarter, 61% of the Moon is Illuminated
Sep 13
First Quarter
Sep 19
Full
Sep 26
Last Quarter
Oct 4
New
Oct 11
First Quarter

Hourly Weather History & Observations

Time (EDT) Temp. Heat Index Dew Point Humidity Pressure Visibility Wind Dir Wind Speed Gust Speed Precip Events Conditions
12:54 AM 72.0 °F - 69.1 °F 91% 29.83 in 8.0 mi WSW 4.6 mph - N/A   Clear
1:54 AM 71.1 °F - 69.1 °F 93% 29.81 in 8.0 mi Calm Calm - N/A   Clear
2:54 AM 71.1 °F - 69.1 °F 93% 29.81 in 7.0 mi West 5.8 mph - N/A   Clear
3:54 AM 72.0 °F - 69.1 °F 91% 29.78 in 9.0 mi Calm Calm - N/A   Clear
4:54 AM 68.0 °F - 66.9 °F 96% 29.79 in 7.0 mi SW 4.6 mph - N/A   Clear
5:54 AM 69.1 °F - 66.9 °F 93% 29.79 in 8.0 mi Calm Calm - N/A   Clear
6:54 AM 66.0 °F - 66.0 °F 100% 29.82 in 6.0 mi Calm Calm - N/A   Scattered Clouds
7:54 AM 70.0 °F - 66.9 °F 90% 29.83 in 9.0 mi Calm Calm - N/A   Clear
8:54 AM 75.0 °F - 66.9 °F 76% 29.83 in 10.0 mi North 6.9 mph - N/A   Partly Cloudy
9:54 AM 79.0 °F - 64.0 °F 60% 29.84 in 10.0 mi NNE 10.4 mph 16.1 mph N/A   Clear
10:54 AM 81.0 °F 82.2 °F 63.0 °F 54% 29.84 in 10.0 mi North 10.4 mph - N/A   Clear
11:54 AM 82.0 °F 82.4 °F 60.1 °F 47% 29.83 in 10.0 mi North 9.2 mph - N/A   Clear
12:54 PM 84.0 °F 84.0 °F 60.1 °F 44% 29.83 in 10.0 mi North 9.2 mph - N/A   Clear
1:54 PM 82.9 °F 83.3 °F 61.0 °F 47% 29.81 in 10.0 mi NNW 9.2 mph - N/A   Mostly Cloudy
2:54 PM 84.9 °F 84.2 °F 57.9 °F 40% 29.79 in 10.0 mi Variable 6.9 mph - N/A   Clear
3:54 PM 86.0 °F 84.9 °F 57.0 °F 37% 29.77 in 10.0 mi North - - N/A   Clear
4:54 PM 86.0 °F 84.9 °F 57.0 °F 37% 29.77 in 10.0 mi NW 8.1 mph - N/A   Clear
5:54 PM 84.0 °F 83.5 °F 57.9 °F 41% 29.77 in 10.0 mi NW 4.6 mph - N/A   Clear
6:54 PM 81.0 °F 81.6 °F 60.1 °F 49% 29.79 in 10.0 mi NNW 6.9 mph - N/A   Mostly Cloudy
7:54 PM 75.0 °F - 57.0 °F 53% 29.82 in 10.0 mi North 10.4 mph - N/A   Partly Cloudy
8:54 PM 73.9 °F - 54.0 °F 50% 29.85 in 10.0 mi NNE 8.1 mph - N/A   Partly Cloudy
9:54 PM 72.0 °F - 53.1 °F 51% 29.87 in 10.0 mi NNE 9.2 mph - N/A   Scattered Clouds
10:54 PM 70.0 °F - 53.1 °F 55% 29.88 in 10.0 mi NNE 6.9 mph - N/A   Scattered Clouds
11:54 PM 70.0 °F - 53.1 °F 55% 29.89 in 10.0 mi NE 8.1 mph - N/A   Overcast